Find Local Weather

World > North America > United States > Wisconsin

Green Lake, Wisconsin Regional Weather

Lat: 43.84N, Lon: 88.96W
Wx Zone: WIZ047
Feedback
Expires:201804241500;;429144
ASUS43 KMKX 241410
RWRWI 

WISCONSIN REGIONAL WEATHER ROUNDUP
NATIONAL WEATHER SERVICE MILWAUKEE/SULLIVAN WI
900 AM CDT TUE APR 24 2018

NOTE: "FAIR" INDICATES FEW OR NO CLOUDS BELOW 12,000 FEET WITH NO
SIGNIFICANT WEATHER AND/OR OBSTRUCTIONS TO VISIBILITY.


WIZ029-030-035-036-043>047-241500-
CENTRAL WISCONSIN
  
CITY           SKY/WX    TMP DP  RH WIND       PRES   REMARKS
WAUSAU         FAIR      50  31  48 NW5       30.09F                  
MOSINEE        MOSUNNY   50  32  50 CALM      30.12F                  
MARSHFIELD     FAIR      57  34  41 N8        30.10S                  
STEVENS POINT  FAIR      52  29  40 N6        30.11F                  
WAUPACA        FAIR      54  32  42 NW3       30.10F                  
WAUTOMA        FAIR      57  31  37 VRB3      30.10F                  
WISC RAPIDS    FAIR      54  28  36 VRB3      30.12F                  
CAMP DOUGLAS   NOT AVBL                                               
$$
 

SKY/WX - Weather  TMP - Temperature  DP - Dewpoint  RH - Relative Humidity
WIND - Wind Direction/Speed PRES - Barometric Pressure